Tracking 19817 objects as of 19-Aug-2019
HD Live streaming from Space Station
objects crossing your sky now

COSMOS 1249 COOLANT

Track COSMOS 1249 COOLANT now!
10-day predictions


NORAD ID: 26511
Int'l Code: 1981-021N
Perigee: 895.5 km
Apogee: 971.5 km
Inclination: 65.0 °
Period: 103.5 minutes
Semi major axis: 7304 km
RCS: 0.0065 m2 (small)
Launch date: March 5, 1981
Source: Commonwealth of Independent States (former USSR) (CIS)
Launch site: TYURATAM MISSILE AND SPACE COMPLEX (TTMTR)

Note: This is SATELLITE DEBRIS
aabbcc
Your satellite tracking list
Your tracking list is empty




NASA's NSSDC Master Catalog

Two Line Element Set (TLE):
1 26511U 81021N   19229.90335743 -.00000060 +00000-0 +24460-4 0  9991
2 26511 064.9611 031.3400 0052012 334.0630 103.5231 13.90641143300655
Source of the keplerian elements: AFSPC